QPF
0.00 0.00 0.00 0.00 0.00 0.01 0.00 0.00 0.00 0.01 0.01 0.00 0.01 0.01 0.02 0.01 0.01 0.00 0.00 0.00 0.01 0.01 0.01 0.01 0.01 0.02 0.02 0.02 0.02 0.02 0.05 0.07 0.10 0.07 0.02 0.02 0.03 0.04 0.04 0.05 0.05 0.04 0.03 0.04
0.00 0.00 0.00 0.00 0.00 0.00 0.00 0.00 0.00 0.01 0.01 0.01 0.01 0.01 0.02 0.02 0.01 0.01 0.00 0.00 0.01 0.01 0.01 0.01 0.02 0.02 0.02 0.02 0.02 0.02 0.03 0.04 0.06 0.05 0.03 0.02 0.02 0.04 0.05 0.05 0.04 0.03 0.03 0.02
0.00 0.00 0.00 0.00 0.00 0.00 0.00 0.00 0.00 0.00 0.01 0.01 0.01 0.01 0.02 0.02 0.01 0.01 0.01 0.01 0.01 0.01 0.01 0.01 0.01 0.01 0.01 0.02 0.02 0.02 0.02 0.03 0.05 0.04 0.02 0.02 0.03 0.05 0.06 0.05 0.03 0.03 0.03 0.02
0.00 0.00 0.00 0.00 0.00 0.00 0.00 0.00 0.00 0.00 0.01 0.01 0.01 0.01 0.01 0.01 0.01 0.01 0.01 0.01 0.00 0.01 0.01 0.01 0.01 0.01 0.01 0.02 0.02 0.02 0.02 0.02 0.04 0.06 0.05 0.04 0.03 0.04 0.05 0.04 0.03 0.03 0.03 0.02
0.00 0.00 0.00 0.00 0.00 0.00 0.00 0.01 0.01 0.01 0.02 0.01 0.00 0.00 0.00 0.01 0.01 0.01 0.01 0.01 0.01 0.01 0.01 0.01 0.01 0.02 0.02 0.01 0.01 0.01 0.01 0.01 0.04 0.07 0.06 0.04 0.03 0.05 0.06 0.05 0.03 0.03 0.03 0.03
0.00 0.00 0.00 0.00 0.00 0.00 0.01 0.01 0.02 0.01 0.01 0.01 0.00 0.00 0.00 0.00 0.01 0.01 0.00 0.01 0.01 0.01 0.01 0.02 0.02 0.02 0.02 0.01 0.01 0.01 0.01 0.02 0.04 0.07 0.06 0.05 0.04 0.06 0.08 0.06 0.04 0.03 0.03 0.03
0.00 0.00 0.00 0.00 0.00 0.00 0.00 0.01 0.01 0.01 0.00 0.00 0.00 0.00 0.00 0.00 0.00 0.00 0.00 0.01 0.01 0.01 0.01 0.01 0.02 0.02 0.01 0.01 0.01 0.01 0.01 0.03 0.05 0.08 0.07 0.06 0.06 0.08 0.08 0.06 0.04 0.02 0.03 0.03
0.00 0.00 0.00 0.00 0.00 0.00 0.00 0.00 0.01 0.01 0.01 0.00 0.00 0.00 0.01 0.00 0.00 0.00 0.01 0.01 0.01 0.01 0.01 0.01 0.01 0.01 0.01 0.02 0.03 0.04 0.02 0.03 0.06 0.09 0.09 0.07 0.08 0.09 0.08 0.06 0.03 0.03 0.03 0.03
0.00 0.00 0.00 0.00 0.00 0.00 0.00 0.01 0.01 0.01 0.00 0.00 0.00 0.00 0.00 0.00 0.00 0.01 0.01 0.01 0.01 0.01 0.00 0.00 0.01 0.01 0.03 0.06 0.07 0.08 0.05 0.03 0.07 0.10 0.10 0.08 0.09 0.08 0.06 0.05 0.05 0.05 0.05 0.03
0.00 0.00 0.00 0.00 0.00 0.00 0.00 0.00 0.01 0.00 0.00 0.00 0.00 0.00 0.00 0.01 0.01 0.01 0.01 0.01 0.00 0.00 0.00 0.00 0.01 0.03 0.05 0.09 0.10 0.06 0.03 0.02 0.04 0.07 0.08 0.08 0.08 0.06 0.05 0.04 0.04 0.04 0.04 0.02
0.00 0.00 0.00 0.00 0.00 0.00 0.00 0.00 0.00 0.01 0.01 0.00 0.00 0.00 0.01 0.01 0.01 0.00 0.00 0.00 0.00 0.00 0.00 0.01 0.01 0.02 0.03 0.03 0.04 0.03 0.03 0.02 0.03 0.05 0.07 0.07 0.07 0.05 0.03 0.03 0.04 0.04 0.03 0.02
0.00 0.00 0.00 0.00 0.00 0.00 0.00 0.00 0.00 0.00 0.00 0.00 0.00 0.00 0.00 0.00 0.01 0.00 0.00 0.00 0.00 0.00 0.00 0.00 0.01 0.01 0.01 0.01 0.01 0.02 0.02 0.02 0.02 0.03 0.05 0.05 0.04 0.03 0.03 0.03 0.04 0.03 0.02 0.02
0.00 0.00 0.00 0.00 0.00 0.00 0.00 0.00 0.00 0.00 0.00 0.00 0.00 0.00 0.00 0.00 0.00 0.00 0.00 0.01 0.01 0.00 0.00 0.00 0.01 0.01 0.01 0.01 0.01 0.02 0.02 0.02 0.03 0.04 0.03 0.04 0.04 0.03 0.04 0.03 0.04 0.04 0.05 0.06
0.00 0.00 0.00 0.00 0.00 0.00 0.00 0.00 0.00 0.00 0.00 0.00 0.00 0.00 0.00 0.00 0.00 0.00 0.00 0.00 0.01 0.01 0.01 0.01 0.01 0.01 0.01 0.01 0.01 0.01 0.02 0.02 0.03 0.04 0.05 0.02 0.02 0.03 0.04 0.03 0.05 0.06 0.07 0.07
0.00 0.00 0.00 0.00 0.00 0.00 0.00 0.00 0.00 0.00 0.00 0.00 0.00 0.00 0.00 0.00 0.00 0.00 0.00 0.00 0.01 0.01 0.01 0.01 0.01 0.01 0.01 0.01 0.01 0.02 0.02 0.02 0.02 0.03 0.04 0.03 0.02 0.02 0.03 0.04 0.06 0.06 0.05 0.04
0.00 0.00 0.00 0.00 0.00 0.00 0.00 0.00 0.00 0.00 0.00 0.00 0.00 0.00 0.00 0.00 0.00 0.00 0.00 0.00 0.00 0.01 0.01 0.01 0.01 0.00 0.01 0.01 0.01 0.02 0.02 0.02 0.03 0.03 0.03 0.04 0.03 0.03 0.03 0.04 0.06 0.05 0.04 0.04
0.00 0.00 0.00 0.00 0.00 0.00 0.00 0.00 0.00 0.00 0.00 0.00 0.00 0.00 0.00 0.00 0.00 0.00 0.00 0.00 0.00 0.01 0.01 0.01 0.01 0.00 0.00 0.01 0.01 0.02 0.01 0.01 0.02 0.02 0.04 0.05 0.04 0.03 0.02 0.03 0.04 0.02 0.04 0.05
0.00 0.00 0.00 0.00 0.00 0.00 0.00 0.00 0.00 0.00 0.00 0.00 0.00 0.00 0.00 0.00 0.00 0.00 0.00 0.00 0.00 0.00 0.00 0.01 0.01 0.00 0.00 0.01 0.01 0.01 0.01 0.01 0.01 0.02 0.04 0.04 0.04 0.03 0.02 0.03 0.02 0.01 0.02 0.02
0.00 0.00 0.00 0.00 0.00 0.00 0.00 0.00 0.00 0.00 0.00 0.00 0.00 0.00 0.00 0.00 0.00 0.00 0.00 0.00 0.00 0.00 0.01 0.00 0.00 0.00 0.01 0.01 0.01 0.00 0.01 0.01 0.01 0.02 0.03 0.04 0.05 0.05 0.04 0.03 0.02 0.02 0.02 0.02
0.00 0.00 0.00 0.00 0.00 0.00 0.00 0.00 0.00 0.00 0.00 0.00 0.00 0.00 0.00 0.00 0.00 0.01 0.01 0.00 0.00 0.00 0.01 0.00 0.00 0.00 0.01 0.01 0.01 0.01 0.01 0.01 0.01 0.02 0.03 0.05 0.06 0.05 0.04 0.04 0.04 0.03 0.02 0.01
0.00 0.00 0.00 0.00 0.00 0.00 0.00 0.00 0.00 0.00 0.00 0.00 0.00 0.00 0.00 0.00 0.00 0.01 0.01 0.02 0.02 0.02 0.01 0.01 0.01 0.01 0.01 0.01 0.01 0.01 0.01 0.01 0.01 0.04 0.05 0.06 0.06 0.05 0.04 0.04 0.05 0.05 0.04 0.03
0.00 0.00 0.00 0.00 0.00 0.00 0.00 0.00 0.00 0.00 0.00 0.00 0.01 0.01 0.01 0.01 0.01 0.01 0.02 0.02 0.03 0.03 0.02 0.02 0.02 0.01 0.01 0.02 0.02 0.01 0.02 0.01 0.01 0.03 0.06 0.06 0.05 0.05 0.05 0.04 0.05 0.06 0.06 0.05
0.00 0.00 0.00 0.00 0.00 0.00 0.00 0.00 0.00 0.00 0.00 0.00 0.01 0.01 0.01 0.01 0.02 0.02 0.02 0.03 0.04 0.05 0.04 0.04 0.04 0.03 0.03 0.02 0.02 0.03 0.02 0.02 0.02 0.02 0.03 0.04 0.04 0.04 0.05 0.04 0.03 0.04 0.05 0.06
0.00 0.00 0.00 0.00 0.00 0.00 0.00 0.00 0.00 0.00 0.01 0.01 0.01 0.01 0.01 0.02 0.02 0.02 0.03 0.04 0.05 0.06 0.06 0.06 0.06 0.06 0.05 0.04 0.04 0.04 0.03 0.02 0.02 0.03 0.03 0.04 0.04 0.04 0.04 0.04 0.04 0.04 0.04 0.04
0.00 0.00 0.01 0.01 0.00 0.00 0.00 0.00 0.00 0.01 0.01 0.01 0.02 0.02 0.01 0.02 0.02 0.03 0.04 0.05 0.06 0.07 0.08 0.08 0.08 0.06 0.05 0.05 0.06 0.06 0.05 0.05 0.05 0.06 0.07 0.06 0.07 0.06 0.06 0.06 0.06 0.05 0.05 0.05
0.00 0.01 0.01 0.01 0.01 0.01 0.01 0.01 0.01 0.01 0.03 0.03 0.02 0.02 0.02 0.02 0.02 0.03 0.04 0.05 0.06 0.07 0.07 0.08 0.07 0.08 0.09 0.09 0.09 0.09 0.09 0.10 0.10 0.09 0.09 0.09 0.08 0.08 0.07 0.05 0.05 0.07 0.08 0.07
MSLP
1008.93 1009.59 1010.13 1010.55 1010.92 1011.27 1011.65 1012.09 1012.56 1013.02 1013.41 1013.66 1013.75 1013.64 1013.37 1012.99 1012.57 1012.18 1011.87 1011.69 1011.61 1011.62 1011.67 1011.71 1011.71 1011.67 1011.59 1011.51 1011.46 1011.47 1011.57 1011.75 1011.98 1012.23 1012.45 1012.60 1012.67 1012.64 1012.56 1012.43 1012.31 1012.21 1012.15 1012.13
1009.31 1009.81 1010.19 1010.49 1010.78 1011.13 1011.58 1012.13 1012.74 1013.35 1013.84 1014.15 1014.22 1014.04 1013.63 1013.09 1012.50 1011.97 1011.58 1011.35 1011.28 1011.35 1011.47 1011.60 1011.68 1011.68 1011.62 1011.53 1011.46 1011.45 1011.54 1011.72 1011.98 1012.28 1012.56 1012.77 1012.90 1012.92 1012.86 1012.74 1012.62 1012.51 1012.45 1012.44
1009.72 1010.03 1010.23 1010.39 1010.61 1010.96 1011.47 1012.14 1012.90 1013.64 1014.24 1014.59 1014.64 1014.35 1013.80 1013.08 1012.31 1011.63 1011.12 1010.84 1010.78 1010.90 1011.12 1011.35 1011.52 1011.60 1011.59 1011.52 1011.45 1011.44 1011.52 1011.72 1012.00 1012.33 1012.66 1012.93 1013.11 1013.18 1013.15 1013.06 1012.95 1012.86 1012.81 1012.82
1010.23 1010.32 1010.33 1010.35 1010.50 1010.85 1011.43 1012.22 1013.12 1013.98 1014.66 1015.04 1015.03 1014.63 1013.91 1012.98 1012.02 1011.16 1010.53 1010.18 1010.11 1010.28 1010.58 1010.92 1011.20 1011.38 1011.45 1011.44 1011.40 1011.40 1011.50 1011.70 1012.00 1012.36 1012.73 1013.05 1013.27 1013.39 1013.40 1013.35 1013.27 1013.20 1013.18 1013.21
1010.89 1010.77 1010.59 1010.48 1010.56 1010.91 1011.56 1012.46 1013.47 1014.43 1015.17 1015.53 1015.45 1014.91 1014.00 1012.86 1011.67 1010.62 1009.84 1009.40 1009.30 1009.49 1009.87 1010.31 1010.71 1011.00 1011.17 1011.23 1011.25 1011.29 1011.40 1011.62 1011.94 1012.33 1012.72 1013.08 1013.35 1013.51 1013.57 1013.56 1013.52 1013.49 1013.51 1013.57
1011.76 1011.42 1011.07 1010.85 1010.87 1011.24 1011.94 1012.92 1014.01 1015.03 1015.78 1016.10 1015.91 1015.21 1014.10 1012.74 1011.33 1010.07 1009.13 1008.57 1008.42 1008.61 1009.03 1009.55 1010.04 1010.44 1010.71 1010.87 1010.96 1011.05 1011.20 1011.45 1011.78 1012.19 1012.61 1013.00 1013.31 1013.51 1013.62 1013.66 1013.67 1013.68 1013.74 1013.85
1012.81 1012.30 1011.81 1011.49 1011.48 1011.85 1012.60 1013.62 1014.76 1015.78 1016.50 1016.74 1016.42 1015.55 1014.24 1012.65 1011.03 1009.58 1008.47 1007.79 1007.55 1007.71 1008.13 1008.70 1009.26 1009.75 1010.11 1010.35 1010.51 1010.66 1010.86 1011.14 1011.50 1011.93 1012.38 1012.79 1013.14 1013.38 1013.54 1013.62 1013.68 1013.75 1013.85 1014.01
1014.00 1013.36 1012.77 1012.40 1012.37 1012.74 1013.50 1014.53 1015.65 1016.63 1017.27 1017.39 1016.93 1015.89 1014.39 1012.62 1010.81 1009.19 1007.93 1007.13 1006.80 1006.90 1007.29 1007.86 1008.46 1008.99 1009.40 1009.71 1009.94 1010.14 1010.39 1010.71 1011.10 1011.56 1012.03 1012.48 1012.85 1013.14 1013.33 1013.47 1013.57 1013.69 1013.84 1014.04
1015.24 1014.52 1013.89 1013.50 1013.46 1013.83 1014.57 1015.56 1016.61 1017.49 1018.00 1017.99 1017.37 1016.18 1014.54 1012.63 1010.70 1008.97 1007.60 1006.69 1006.28 1006.29 1006.63 1007.15 1007.73 1008.25 1008.69 1009.02 1009.29 1009.54 1009.83 1010.18 1010.61 1011.10 1011.60 1012.08 1012.49 1012.81 1013.05 1013.23 1013.38 1013.54 1013.73 1013.98
1016.42 1015.69 1015.07 1014.69 1014.66 1015.01 1015.70 1016.60 1017.53 1018.26 1018.61 1018.43 1017.68 1016.37 1014.64 1012.67 1010.70 1008.92 1007.51 1006.55 1006.06 1005.99 1006.24 1006.68 1007.18 1007.66 1008.06 1008.38 1008.65 1008.92 1009.24 1009.62 1010.08 1010.60 1011.13 1011.64 1012.09 1012.45 1012.73 1012.95 1013.14 1013.33 1013.57 1013.85
1017.45 1016.78 1016.22 1015.89 1015.87 1016.19 1016.79 1017.54 1018.29 1018.83 1018.98 1018.65 1017.78 1016.41 1014.67 1012.72 1010.80 1009.07 1007.68 1006.72 1006.20 1006.06 1006.21 1006.53 1006.91 1007.28 1007.59 1007.85 1008.08 1008.34 1008.65 1009.05 1009.53 1010.08 1010.65 1011.19 1011.68 1012.08 1012.41 1012.66 1012.89 1013.12 1013.38 1013.68
1018.30 1017.74 1017.28 1017.02 1017.00 1017.26 1017.73 1018.30 1018.82 1019.13 1019.08 1018.59 1017.63 1016.26 1014.58 1012.75 1010.97 1009.38 1008.10 1007.21 1006.68 1006.48 1006.52 1006.70 1006.93 1007.14 1007.31 1007.46 1007.61 1007.80 1008.09 1008.49 1008.98 1009.55 1010.15 1010.74 1011.27 1011.72 1012.09 1012.39 1012.65 1012.91 1013.19 1013.52
1018.99 1018.57 1018.23 1018.03 1018.01 1018.18 1018.48 1018.83 1019.09 1019.14 1018.88 1018.25 1017.24 1015.92 1014.37 1012.74 1011.17 1009.80 1008.70 1007.92 1007.44 1007.20 1007.13 1007.15 1007.19 1007.20 1007.19 1007.18 1007.20 1007.31 1007.54 1007.90 1008.39 1008.97 1009.60 1010.23 1010.81 1011.32 1011.75 1012.10 1012.41 1012.70 1013.01 1013.35
1019.57 1019.30 1019.07 1018.92 1018.87 1018.91 1019.01 1019.10 1019.08 1018.87 1018.40 1017.65 1016.63 1015.39 1014.03 1012.65 1011.37 1010.27 1009.40 1008.77 1008.35 1008.09 1007.91 1007.77 1007.60 1007.39 1007.17 1006.96 1006.82 1006.80 1006.94 1007.24 1007.71 1008.29 1008.95 1009.62 1010.26 1010.84 1011.34 1011.76 1012.13 1012.48 1012.82 1013.18
1020.11 1019.98 1019.83 1019.68 1019.56 1019.45 1019.32 1019.13 1018.82 1018.35 1017.69 1016.85 1015.84 1014.73 1013.58 1012.49 1011.52 1010.71 1010.09 1009.62 1009.28 1009.01 1008.73 1008.41 1008.03 1007.59 1007.13 1006.71 1006.39 1006.21 1006.23 1006.46 1006.88 1007.46 1008.13 1008.85 1009.55 1010.21 1010.80 1011.32 1011.78 1012.20 1012.60 1013.00
1020.67 1020.63 1020.50 1020.32 1020.08 1019.78 1019.40 1018.94 1018.35 1017.65 1016.82 1015.91 1014.94 1013.97 1013.06 1012.25 1011.58 1011.06 1010.68 1010.38 1010.11 1009.81 1009.44 1008.96 1008.37 1007.70 1007.01 1006.37 1005.84 1005.50 1005.40 1005.53 1005.90 1006.45 1007.13 1007.89 1008.67 1009.42 1010.12 1010.75 1011.32 1011.84 1012.32 1012.77
1021.27 1021.24 1021.08 1020.80 1020.41 1019.90 1019.28 1018.55 1017.72 1016.81 1015.87 1014.91 1014.00 1013.18 1012.49 1011.94 1011.55 1011.29 1011.10 1010.94 1010.72 1010.41 1009.94 1009.30 1008.52 1007.64 1006.74 1005.89 1005.18 1004.68 1004.44 1004.48 1004.78 1005.30 1005.99 1006.79 1007.64 1008.49 1009.31 1010.07 1010.77 1011.40 1011.98 1012.52
1021.86 1021.76 1021.50 1021.08 1020.50 1019.78 1018.93 1017.98 1016.96 1015.92 1014.89 1013.94 1013.10 1012.43 1011.93 1011.61 1011.44 1011.37 1011.33 1011.26 1011.08 1010.72 1010.17 1009.40 1008.46 1007.41 1006.33 1005.31 1004.44 1003.80 1003.44 1003.38 1003.61 1004.10 1004.79 1005.62 1006.54 1007.49 1008.42 1009.32 1010.15 1010.91 1011.61 1012.23
1022.32 1022.09 1021.67 1021.07 1020.31 1019.40 1018.37 1017.26 1016.12 1015.01 1013.97 1013.05 1012.31 1011.77 1011.43 1011.28 1011.27 1011.33 1011.39 1011.36 1011.18 1010.79 1010.15 1009.28 1008.22 1007.05 1005.84 1004.70 1003.71 1002.96 1002.51 1002.36 1002.53 1002.98 1003.66 1004.51 1005.48 1006.51 1007.56 1008.58 1009.54 1010.43 1011.23 1011.95
1022.55 1022.12 1021.51 1020.73 1019.80 1018.75 1017.60 1016.41 1015.24 1014.12 1013.13 1012.30 1011.66 1011.24 1011.03 1011.00 1011.08 1011.21 1011.31 1011.29 1011.08 1010.64 1009.95 1009.01 1007.89 1006.64 1005.36 1004.15 1003.10 1002.28 1001.75 1001.55 1001.66 1002.07 1002.73 1003.59 1004.60 1005.69 1006.82 1007.93 1009.00 1009.99 1010.89 1011.68
1022.41 1021.77 1020.97 1020.02 1018.96 1017.82 1016.64 1015.46 1014.32 1013.29 1012.40 1011.68 1011.17 1010.86 1010.74 1010.78 1010.90 1011.05 1011.13 1011.09 1010.85 1010.37 1009.65 1008.69 1007.54 1006.28 1004.99 1003.77 1002.69 1001.84 1001.28 1001.03 1001.10 1001.46 1002.10 1002.95 1003.97 1005.09 1006.27 1007.45 1008.59 1009.65 1010.61 1011.46
1021.85 1021.00 1020.02 1018.94 1017.81 1016.66 1015.51 1014.41 1013.40 1012.51 1011.76 1011.19 1010.80 1010.59 1010.53 1010.59 1010.72 1010.84 1010.89 1010.81 1010.54 1010.04 1009.31 1008.36 1007.25 1006.03 1004.78 1003.59 1002.53 1001.69 1001.12 1000.84 1000.87 1001.20 1001.80 1002.63 1003.63 1004.76 1005.95 1007.16 1008.33 1009.42 1010.41 1011.28
1020.86 1019.82 1018.71 1017.56 1016.42 1015.31 1014.27 1013.32 1012.47 1011.76 1011.18 1010.76 1010.48 1010.35 1010.33 1010.40 1010.50 1010.58 1010.58 1010.46 1010.17 1009.68 1008.98 1008.08 1007.04 1005.90 1004.73 1003.61 1002.61 1001.80 1001.23 1000.94 1000.95 1001.24 1001.80 1002.59 1003.56 1004.67 1005.85 1007.04 1008.20 1009.29 1010.27 1011.12
1019.52 1018.33 1017.14 1015.97 1014.87 1013.86 1012.96 1012.18 1011.52 1010.99 1010.58 1010.29 1010.11 1010.04 1010.04 1010.09 1010.16 1010.20 1010.17 1010.02 1009.74 1009.28 1008.64 1007.83 1006.89 1005.86 1004.80 1003.77 1002.84 1002.08 1001.53 1001.24 1001.22 1001.48 1002.00 1002.75 1003.68 1004.74 1005.88 1007.04 1008.16 1009.21 1010.16 1010.97
1017.93 1016.66 1015.43 1014.29 1013.26 1012.38 1011.63 1011.01 1010.53 1010.15 1009.88 1009.69 1009.58 1009.54 1009.54 1009.58 1009.62 1009.63 1009.59 1009.46 1009.21 1008.81 1008.27 1007.57 1006.75 1005.85 1004.90 1003.97 1003.12 1002.40 1001.88 1001.60 1001.56 1001.79 1002.27 1002.98 1003.86 1004.88 1005.98 1007.09 1008.16 1009.16 1010.04 1010.80
1016.26 1014.95 1013.72 1012.63 1011.70 1010.92 1010.30 1009.82 1009.46 1009.19 1009.00 1008.87 1008.79 1008.75 1008.75 1008.77 1008.80 1008.82 1008.80 1008.71 1008.53 1008.24 1007.81 1007.24 1006.55 1005.77 1004.93 1004.09 1003.31 1002.64 1002.15 1001.86 1001.82 1002.04 1002.49 1003.16 1004.02 1005.00 1006.05 1007.11 1008.13 1009.07 1009.89 1010.59
Thickness
5816 5801 5789 5795 5800 5800 5793 5785 5780 5786 5799 5791 5783 5783 5788 5793 5791 5787 5785 5784 5783 5784 5787 5788 5787 5786 5783 5781 5778 5776 5774 5773 5772 5769 5767 5765 5764 5765 5765 5765 5765 5764 5763 5762
5799 5793 5807 5812 5809 5803 5794 5784 5781 5789 5799 5792 5783 5783 5791 5793 5792 5792 5789 5788 5787 5786 5786 5786 5786 5785 5783 5781 5779 5777 5776 5774 5773 5772 5770 5768 5766 5766 5765 5766 5765 5765 5763 5762
5794 5803 5816 5811 5803 5797 5793 5787 5786 5785 5791 5791 5783 5777 5784 5792 5796 5795 5795 5794 5792 5790 5787 5786 5786 5785 5784 5782 5780 5780 5777 5776 5775 5774 5771 5769 5767 5766 5764 5764 5764 5764 5763 5762
5800 5811 5813 5806 5802 5801 5787 5802 5798 5790 5776 5765 5775 5755 5777 5784 5788 5792 5793 5794 5794 5794 5793 5790 5788 5787 5786 5785 5784 5781 5779 5777 5776 5774 5771 5768 5765 5762 5762 5763 5763 5763 5762 5762
5798 5809 5807 5802 5807 5808 5799 5807 5797 5788 5774 5763 5766 5757 5768 5782 5782 5790 5796 5798 5799 5798 5796 5794 5793 5791 5790 5788 5785 5782 5779 5778 5776 5774 5772 5768 5766 5764 5763 5762 5762 5761 5761 5760
5804 5815 5815 5813 5817 5815 5808 5795 5784 5771 5761 5748 5761 5755 5761 5775 5786 5795 5801 5803 5803 5802 5800 5797 5796 5794 5791 5789 5786 5783 5779 5777 5776 5774 5772 5769 5767 5764 5762 5760 5759 5759 5758 5758
5790 5803 5813 5817 5805 5805 5798 5773 5749 5745 5736 5742 5762 5758 5766 5794 5802 5805 5807 5807 5808 5806 5801 5798 5795 5792 5790 5789 5786 5783 5779 5777 5776 5774 5772 5770 5768 5765 5762 5759 5758 5757 5756 5756
5770 5773 5800 5810 5804 5794 5788 5777 5748 5736 5732 5742 5758 5757 5781 5805 5811 5814 5815 5813 5811 5807 5804 5801 5799 5796 5793 5790 5787 5784 5780 5778 5776 5774 5772 5770 5768 5765 5763 5761 5759 5758 5757 5756
5766 5772 5802 5811 5812 5802 5784 5773 5774 5750 5744 5740 5749 5766 5789 5807 5809 5811 5812 5811 5809 5808 5806 5804 5801 5799 5795 5792 5789 5786 5782 5779 5777 5774 5772 5770 5768 5765 5764 5762 5760 5758 5756 5756
5780 5772 5790 5802 5806 5799 5793 5775 5758 5745 5733 5732 5748 5757 5766 5790 5798 5804 5806 5807 5808 5809 5807 5805 5802 5800 5797 5794 5792 5788 5785 5781 5778 5774 5772 5770 5768 5766 5764 5761 5758 5756 5755 5754
5782 5768 5774 5784 5782 5778 5778 5770 5755 5742 5743 5732 5733 5753 5790 5793 5798 5801 5805 5808 5809 5808 5808 5806 5803 5801 5798 5795 5791 5787 5784 5780 5776 5774 5772 5770 5768 5766 5763 5760 5757 5755 5754 5752
5772 5758 5752 5768 5785 5791 5785 5773 5759 5748 5740 5735 5735 5754 5802 5801 5803 5804 5805 5809 5810 5810 5808 5806 5803 5800 5797 5794 5790 5787 5784 5780 5777 5774 5771 5768 5766 5764 5761 5758 5756 5754 5752 5751
5766 5751 5738 5746 5759 5773 5772 5770 5762 5750 5737 5729 5734 5758 5799 5799 5800 5802 5804 5806 5807 5806 5805 5803 5800 5797 5795 5793 5790 5787 5784 5780 5777 5773 5769 5766 5763 5761 5759 5757 5755 5753 5751 5748
5767 5745 5740 5737 5746 5760 5762 5765 5760 5753 5737 5733 5743 5759 5781 5788 5791 5796 5799 5802 5802 5801 5800 5798 5795 5794 5793 5791 5789 5786 5783 5780 5776 5772 5767 5764 5761 5759 5757 5755 5753 5751 5748 5746
5757 5741 5747 5751 5759 5761 5761 5760 5759 5757 5750 5745 5754 5758 5774 5782 5787 5792 5795 5796 5796 5796 5796 5794 5792 5791 5790 5788 5786 5784 5781 5778 5775 5770 5765 5762 5760 5758 5755 5753 5751 5748 5747 5745
5739 5735 5740 5743 5752 5753 5753 5756 5757 5757 5754 5754 5757 5760 5779 5784 5786 5788 5789 5790 5790 5791 5792 5792 5790 5789 5788 5786 5784 5782 5779 5776 5772 5768 5763 5760 5757 5754 5752 5750 5748 5746 5745 5743
5724 5724 5721 5720 5735 5742 5733 5748 5751 5752 5756 5755 5750 5762 5774 5775 5778 5781 5785 5786 5787 5788 5789 5788 5787 5787 5786 5784 5783 5779 5777 5774 5769 5765 5761 5758 5755 5752 5749 5747 5745 5743 5742 5740
5716 5710 5702 5704 5719 5711 5734 5755 5756 5752 5755 5758 5759 5763 5768 5772 5777 5781 5783 5782 5783 5785 5785 5784 5784 5783 5783 5782 5780 5777 5774 5769 5765 5761 5758 5756 5753 5749 5746 5744 5742 5741 5739 5737
5713 5706 5693 5689 5695 5708 5730 5746 5747 5742 5743 5754 5753 5757 5761 5766 5768 5771 5778 5779 5780 5782 5783 5782 5782 5782 5780 5778 5776 5773 5769 5765 5760 5757 5755 5753 5750 5746 5743 5740 5739 5737 5735 5733
5700 5699 5689 5682 5688 5690 5718 5742 5749 5741 5729 5748 5749 5749 5751 5753 5745 5755 5769 5772 5774 5776 5777 5777 5778 5776 5774 5773 5771 5767 5763 5760 5757 5755 5753 5750 5747 5744 5741 5738 5736 5734 5732 5730
5683 5679 5678 5676 5682 5695 5720 5733 5738 5715 5721 5740 5741 5742 5742 5741 5744 5753 5760 5762 5765 5766 5768 5770 5769 5768 5767 5766 5764 5760 5758 5756 5755 5752 5749 5746 5743 5740 5738 5734 5732 5730 5728 5726
5673 5669 5667 5666 5671 5686 5717 5720 5714 5715 5726 5730 5732 5734 5735 5737 5741 5745 5749 5751 5753 5755 5758 5760 5759 5759 5759 5759 5756 5754 5752 5752 5749 5746 5743 5740 5738 5736 5734 5730 5727 5725 5723 5720
5667 5672 5671 5675 5683 5698 5706 5709 5714 5716 5717 5721 5723 5727 5729 5729 5731 5734 5736 5739 5742 5744 5746 5748 5748 5748 5748 5749 5749 5745 5746 5745 5741 5738 5735 5733 5731 5730 5728 5725 5722 5719 5717 5715
5664 5668 5667 5671 5683 5692 5698 5703 5706 5710 5711 5715 5717 5719 5721 5720 5722 5723 5724 5726 5729 5732 5734 5736 5736 5736 5737 5739 5738 5738 5738 5737 5734 5731 5729 5726 5724 5722 5721 5719 5717 5715 5713 5711
5656 5659 5659 5663 5673 5681 5689 5693 5697 5700 5703 5705 5708 5711 5712 5712 5712 5713 5713 5715 5718 5720 5722 5724 5724 5725 5726 5728 5728 5729 5729 5729 5726 5723 5721 5719 5718 5714 5713 5712 5711 5710 5710 5709
5649 5650 5651 5656 5666 5667 5675 5683 5687 5688 5691 5694 5697 5699 5702 5703 5703 5704 5704 5706 5708 5710 5711 5712 5713 5715 5717 5718 5719 5721 5721 5721 5718 5715 5713 5712 5711 5709 5707 5705 5704 5705 5703 5702